JBU2028 KMCO-KEWR

Flight info

Callsign JBU2028
Flight time 2h 6m
Altitude 35000
Route FATHE4 VIYAP Q87 ALWZZ OGRAE Q99 QUART PHLBO4
Aircraft A320/M-SDE3FGHIRWY/LB1

Departure

Time 2026-04-25 00:46
Airport Orlando International Airport (KMCO)

Arrival

Time 2026-04-25 02:53
Airport Newark Liberty International Airport (KEWR)
Time Latitude Longitude Altitude Speed Heading
2026-04-25 00:11 28.42641 -81.31563 101 ft 0 kts 131°
2026-04-25 00:13 28.42639 -81.31565 101 ft 0 kts 130°
2026-04-25 00:34 28.42651 -81.31581 100 ft 4 kts 130°
2026-04-25 00:34 28.42667 -81.31603 100 ft 2 kts 130°
2026-04-25 00:34 28.42680 -81.31624 100 ft 4 kts 96°
2026-04-25 00:35 28.42675 -81.31642 99 ft 4 kts
2026-04-25 00:35 28.42651 -81.31639 101 ft 2 kts 347°
2026-04-25 00:35 28.42649 -81.31639 100 ft 0 kts 347°
2026-04-25 00:38 28.42653 -81.31640 102 ft 2 kts 347°
2026-04-25 00:38 28.42686 -81.31648 102 ft 11 kts 347°
2026-04-25 00:39 28.42714 -81.31698 102 ft 6 kts 258°
2026-04-25 00:39 28.42709 -81.31741 104 ft 5 kts 268°
2026-04-25 00:39 28.42711 -81.31775 105 ft 4 kts 277°
2026-04-25 00:39 28.42717 -81.31803 106 ft 3 kts 296°
2026-04-25 00:40 28.42736 -81.31824 106 ft 5 kts 325°
2026-04-25 00:40 28.42777 -81.31836 104 ft 8 kts 359°
2026-04-25 00:40 28.42844 -81.31835 103 ft 11 kts
2026-04-25 00:40 28.42931 -81.31832 102 ft 14 kts
2026-04-25 00:41 28.43031 -81.31830 103 ft 15 kts
2026-04-25 00:41 28.43139 -81.31838 101 ft 16 kts 355°
2026-04-25 00:41 28.43261 -81.31842 101 ft 19 kts 359°
2026-04-25 00:41 28.43398 -81.31845 102 ft 20 kts 359°
2026-04-25 00:42 28.43534 -81.31848 105 ft 20 kts 359°
2026-04-25 00:42 28.43676 -81.31848 105 ft 21 kts
2026-04-25 00:42 28.43828 -81.31846 107 ft 22 kts 358°
2026-04-25 00:42 28.43979 -81.31871 110 ft 22 kts 339°
2026-04-25 00:43 28.44133 -81.31903 108 ft 24 kts 360°
2026-04-25 00:43 28.44309 -81.31902 107 ft 26 kts 360°
2026-04-25 00:43 28.44498 -81.31900 104 ft 29 kts
2026-04-25 00:43 28.44697 -81.31909 101 ft 21 kts 358°
2026-04-25 00:44 28.44813 -81.31924 103 ft 12 kts 318°
2026-04-25 00:44 28.44824 -81.31977 102 ft 0 kts 266°
2026-04-25 00:44 28.44824 -81.31979 102 ft 2 kts 267°
2026-04-25 00:44 28.44823 -81.32006 102 ft 6 kts 266°
2026-04-25 00:45 28.44819 -81.32079 100 ft 13 kts 268°
2026-04-25 00:45 28.44809 -81.32204 101 ft 17 kts 225°
2026-04-25 00:45 28.44679 -81.32217 103 ft 35 kts 176°
2026-04-25 00:45 28.44210 -81.32208 111 ft 96 kts 179°
2026-04-25 00:46 28.43377 -81.32204 104 ft 142 kts 178°
2026-04-25 00:46 28.42300 -81.32177 420 ft 152 kts 178°
2026-04-25 00:46 28.40006 -81.32123 1117 ft 189 kts 186°
2026-04-25 00:47 28.38784 -81.32710 1710 ft 192 kts 204°
2026-04-25 00:47 28.37606 -81.33423 2300 ft 193 kts 205°
2026-04-25 00:47 28.36580 -81.34397 2885 ft 197 kts 237°
2026-04-25 00:47 28.36164 -81.35886 3443 ft 203 kts 259°
2026-04-25 00:48 28.35982 -81.37507 3901 ft 212 kts 263°
2026-04-25 00:48 28.35815 -81.39213 4417 ft 224 kts 263°
2026-04-25 00:48 28.35789 -81.41030 4918 ft 239 kts 281°
2026-04-25 00:48 28.36559 -81.42787 5293 ft 262 kts 314°
2026-04-25 00:49 28.38159 -81.43821 5958 ft 274 kts 347°
2026-04-25 00:49 28.40075 -81.43708 6737 ft 282 kts 12°
2026-04-25 00:49 28.41973 -81.43130 7571 ft 283 kts 14°
2026-04-25 00:49 28.43867 -81.42479 8355 ft 286 kts 15°
2026-04-25 00:50 28.45775 -81.41803 9139 ft 289 kts 15°
2026-04-25 00:50 28.47702 -81.41123 9891 ft 292 kts 14°
2026-04-25 00:50 28.49674 -81.40439 10367 ft 305 kts 14°
2026-04-25 00:50 28.51779 -81.39722 10534 ft 327 kts 14°
2026-04-25 00:51 28.54003 -81.38972 10671 ft 348 kts 14°
2026-04-25 00:51 28.56365 -81.38178 11095 ft 358 kts 14°
2026-04-25 00:51 28.58768 -81.37368 11721 ft 361 kts 14°
2026-04-25 00:51 28.61187 -81.36555 12382 ft 364 kts 14°
2026-04-25 00:52 28.63626 -81.35732 13047 ft 366 kts 14°
2026-04-25 00:52 28.66076 -81.34908 13712 ft 368 kts 14°
2026-04-25 00:52 28.68542 -81.34081 14282 ft 371 kts 14°
2026-04-25 00:52 28.71019 -81.33249 14856 ft 372 kts 14°
2026-04-25 00:53 28.73513 -81.32409 15414 ft 375 kts 14°
2026-04-25 00:53 28.76021 -81.31561 15954 ft 377 kts 14°
2026-04-25 00:53 28.78550 -81.30703 16504 ft 380 kts 14°
2026-04-25 00:53 28.81091 -81.29843 17067 ft 383 kts 14°
2026-04-25 00:54 28.83691 -81.29157 17639 ft 384 kts
2026-04-25 00:54 28.86359 -81.29027 18215 ft 384 kts 355°
2026-04-25 00:54 28.89001 -81.29252 18720 ft 387 kts 354°
2026-04-25 00:54 28.91699 -81.29488 19230 ft 390 kts 354°
2026-04-25 00:55 28.94419 -81.29722 19728 ft 393 kts 354°
2026-04-25 00:55 28.97163 -81.29959 20233 ft 397 kts 353°
2026-04-25 00:55 28.99923 -81.30197 20706 ft 400 kts 353°
2026-04-25 00:55 29.02706 -81.30475 21154 ft 403 kts 352°
2026-04-25 00:56 29.05507 -81.30787 21587 ft 406 kts 352°
2026-04-25 00:56 29.07371 -81.31004 21866 ft 407 kts 352°
2026-04-25 00:56 29.10201 -81.31337 22277 ft 410 kts 352°
2026-04-25 00:56 29.13059 -81.31631 22672 ft 414 kts 353°
2026-04-25 00:57 29.15942 -81.31845 23071 ft 417 kts 354°
2026-04-25 00:57 29.18850 -81.32005 23450 ft 420 kts 355°
2026-04-25 00:57 29.21783 -81.32142 23780 ft 423 kts 355°
2026-04-25 00:57 29.24733 -81.32279 24102 ft 425 kts 355°
2026-04-25 00:58 29.27694 -81.32429 24422 ft 427 kts 355°
2026-04-25 00:58 29.30673 -81.32593 24739 ft 429 kts 354°
2026-04-25 00:58 29.33657 -81.32766 25051 ft 431 kts 354°
2026-04-25 00:58 29.36659 -81.32947 25361 ft 433 kts 354°
2026-04-25 00:59 29.39674 -81.33135 25669 ft 435 kts 354°
2026-04-25 00:59 29.42663 -81.33322 25975 ft 437 kts 354°
2026-04-25 00:59 29.45709 -81.33513 26287 ft 439 kts 354°
2026-04-25 00:59 29.48766 -81.33701 26594 ft 441 kts 354°
2026-04-25 01:00 29.51835 -81.33888 26896 ft 443 kts 354°
2026-04-25 01:00 29.54923 -81.34075 27221 ft 444 kts 354°
2026-04-25 01:00 29.58004 -81.34261 27637 ft 443 kts 354°
2026-04-25 01:00 29.61079 -81.34449 28061 ft 443 kts 354°
2026-04-25 01:01 29.64154 -81.34636 28483 ft 442 kts 355°
2026-04-25 01:01 29.67228 -81.34817 28907 ft 442 kts 355°
2026-04-25 01:01 29.70297 -81.34992 29331 ft 441 kts 355°
2026-04-25 01:01 29.73363 -81.35163 29768 ft 441 kts 355°
2026-04-25 01:02 29.76425 -81.35333 30184 ft 440 kts 355°
2026-04-25 01:02 29.79481 -81.35504 30571 ft 439 kts 354°
2026-04-25 01:02 29.82529 -81.35679 30971 ft 437 kts 354°
2026-04-25 01:02 29.85561 -81.35852 31360 ft 437 kts 355°
2026-04-25 01:03 29.88601 -81.36025 31738 ft 436 kts 354°
2026-04-25 01:03 29.91586 -81.36195 32131 ft 435 kts 354°
2026-04-25 01:03 29.94598 -81.36367 32529 ft 433 kts 354°
2026-04-25 01:03 29.97606 -81.36541 32941 ft 432 kts 354°
2026-04-25 01:04 30.00602 -81.36713 33346 ft 430 kts 354°
2026-04-25 01:04 30.03587 -81.36885 33764 ft 429 kts 354°
2026-04-25 01:04 30.06564 -81.37059 34142 ft 427 kts 354°
2026-04-25 01:04 30.09527 -81.37232 34468 ft 426 kts 354°
2026-04-25 01:05 30.12492 -81.37403 34783 ft 425 kts 354°
2026-04-25 01:05 30.15453 -81.37573 34946 ft 427 kts 354°
2026-04-25 01:05 30.18438 -81.37745 34981 ft 432 kts 354°
2026-04-25 01:06 30.24512 -81.38097 34985 ft 439 kts 354°
2026-04-25 01:06 30.30621 -81.38457 34980 ft 440 kts 354°
2026-04-25 01:07 30.36732 -81.38811 34980 ft 440 kts 354°
2026-04-25 01:07 30.42809 -81.39161 34981 ft 440 kts 354°
2026-04-25 01:08 30.48934 -81.39513 34985 ft 441 kts 354°
2026-04-25 01:08 30.55067 -81.39838 35001 ft 441 kts 355°
2026-04-25 01:09 30.61202 -81.40155 35005 ft 441 kts 355°
2026-04-25 01:09 30.67342 -81.40476 35016 ft 442 kts 355°
2026-04-25 01:10 30.73489 -81.40576 35006 ft 444 kts
2026-04-25 01:10 30.79600 -81.39318 34997 ft 446 kts
2026-04-25 01:11 30.85701 -81.38013 34991 ft 446 kts
2026-04-25 01:11 30.91811 -81.36702 34981 ft 446 kts
2026-04-25 01:12 30.97875 -81.35407 34985 ft 446 kts
2026-04-25 01:12 31.03977 -81.34096 34978 ft 446 kts
2026-04-25 01:13 31.10082 -81.32783 34975 ft 446 kts
2026-04-25 01:13 31.16179 -81.31468 34976 ft 446 kts
2026-04-25 01:14 31.22279 -81.30166 34976 ft 446 kts
2026-04-25 01:14 31.28379 -81.28858 34992 ft 446 kts
2026-04-25 01:15 31.34483 -81.27532 34985 ft 446 kts
2026-04-25 01:15 31.40600 -81.26201 34974 ft 447 kts
2026-04-25 01:16 31.46716 -81.24874 34968 ft 447 kts
2026-04-25 01:16 31.52843 -81.23547 34968 ft 448 kts
2026-04-25 01:17 31.58974 -81.22227 34961 ft 448 kts
2026-04-25 01:17 31.65105 -81.20895 34964 ft 448 kts
2026-04-25 01:18 31.71008 -81.18686 34954 ft 452 kts 23°
2026-04-25 01:18 31.76703 -81.15551 34952 ft 452 kts 23°
2026-04-25 01:19 31.82402 -81.12431 34950 ft 452 kts 23°
2026-04-25 01:19 31.88102 -81.09319 34949 ft 452 kts 23°
2026-04-25 01:20 31.93803 -81.06191 34949 ft 452 kts 23°
2026-04-25 01:20 31.99501 -81.03064 34950 ft 452 kts 23°
2026-04-25 01:21 32.05187 -80.99906 34953 ft 452 kts 24°
2026-04-25 01:21 32.10860 -80.96717 34953 ft 452 kts 24°
2026-04-25 01:22 32.16530 -80.93516 34978 ft 451 kts 24°
2026-04-25 01:22 32.22207 -80.90335 34988 ft 452 kts 23°
2026-04-25 01:23 32.27852 -80.87168 34976 ft 453 kts 23°
2026-04-25 01:23 32.33545 -80.83983 34981 ft 453 kts 23°
2026-04-25 01:24 32.39237 -80.80769 34973 ft 453 kts 23°
2026-04-25 01:24 32.44931 -80.77558 34973 ft 453 kts 23°
2026-04-25 01:25 32.50617 -80.74341 34976 ft 453 kts 24°
2026-04-25 01:25 32.56270 -80.71145 34981 ft 453 kts 24°
2026-04-25 01:26 32.61949 -80.67929 34978 ft 452 kts 24°
2026-04-25 01:26 32.67631 -80.64703 34976 ft 452 kts 24°
2026-04-25 01:27 32.73299 -80.61470 34965 ft 452 kts 24°
2026-04-25 01:27 32.78937 -80.58144 34964 ft 452 kts 25°
2026-04-25 01:28 32.87359 -80.53076 34967 ft 452 kts 25°
2026-04-25 01:28 32.92976 -80.49717 34959 ft 452 kts 24°
2026-04-25 01:29 32.98608 -80.46380 34958 ft 452 kts 24°
2026-04-25 01:29 33.04241 -80.43029 34953 ft 452 kts 24°
2026-04-25 01:30 33.09875 -80.39658 34958 ft 453 kts 24°
2026-04-25 01:30 33.15506 -80.36281 34964 ft 453 kts 25°
2026-04-25 01:31 33.21131 -80.32904 34961 ft 453 kts 24°
2026-04-25 01:31 33.26730 -80.29549 34960 ft 453 kts 24°
2026-04-25 01:32 33.32352 -80.26165 34960 ft 453 kts 24°
2026-04-25 01:32 33.37981 -80.22778 34953 ft 452 kts 24°
2026-04-25 01:33 33.43610 -80.19389 34960 ft 452 kts 25°
2026-04-25 01:33 33.49225 -80.15994 34966 ft 452 kts 25°
2026-04-25 01:34 33.54846 -80.12578 34953 ft 453 kts 25°
2026-04-25 01:34 33.60477 -80.09174 34956 ft 453 kts 25°
2026-04-25 01:35 33.66102 -80.05763 34956 ft 453 kts 25°
2026-04-25 01:35 33.71690 -80.02366 34956 ft 453 kts 25°
2026-04-25 01:36 33.77319 -79.98941 34935 ft 453 kts 25°
2026-04-25 01:36 33.82947 -79.95513 34932 ft 453 kts 25°
2026-04-25 01:37 33.88570 -79.92082 34933 ft 453 kts 25°
2026-04-25 01:37 33.94192 -79.88640 34926 ft 452 kts 25°
2026-04-25 01:38 33.99803 -79.85212 34932 ft 452 kts 25°
2026-04-25 01:38 34.05419 -79.81776 34936 ft 452 kts 25°
2026-04-25 01:39 34.11024 -79.78346 34937 ft 452 kts 25°
2026-04-25 01:39 34.16634 -79.74888 34930 ft 453 kts 25°
2026-04-25 01:40 34.22206 -79.71442 34928 ft 453 kts 25°
2026-04-25 01:40 34.27825 -79.67974 34914 ft 453 kts 25°
2026-04-25 01:41 34.33444 -79.64518 34922 ft 453 kts 25°
2026-04-25 01:41 34.39056 -79.61050 34925 ft 452 kts 25°
2026-04-25 01:42 34.44657 -79.57580 34918 ft 452 kts 25°
2026-04-25 01:42 34.50256 -79.54112 34913 ft 452 kts 25°
2026-04-25 01:43 34.55849 -79.50623 34919 ft 452 kts 26°
2026-04-25 01:43 34.61370 -79.46990 34921 ft 451 kts 27°
2026-04-25 01:44 34.66835 -79.43247 34921 ft 451 kts 28°
2026-04-25 01:44 34.72568 -79.40493 34923 ft 445 kts
2026-04-25 01:45 34.78672 -79.39208 34920 ft 445 kts
2026-04-25 01:45 34.84773 -79.37908 34924 ft 444 kts
2026-04-25 01:46 34.90859 -79.36599 34920 ft 444 kts
2026-04-25 01:46 34.96944 -79.35298 34894 ft 444 kts
2026-04-25 01:47 35.03024 -79.34008 34893 ft 443 kts
2026-04-25 01:47 35.08068 -79.32929 34901 ft 442 kts
2026-04-25 01:48 35.14127 -79.31611 34899 ft 441 kts
2026-04-25 01:48 35.21152 -79.30098 34935 ft 441 kts
2026-04-25 01:49 35.26218 -79.29007 34934 ft 441 kts
2026-04-25 01:49 35.32213 -79.27727 34934 ft 440 kts
2026-04-25 01:50 35.38238 -79.26434 34927 ft 439 kts
2026-04-25 01:50 35.44254 -79.25130 34925 ft 439 kts
2026-04-25 01:51 35.50268 -79.23825 34929 ft 439 kts
2026-04-25 01:51 35.56281 -79.22526 34930 ft 438 kts
2026-04-25 01:52 35.62287 -79.21219 34926 ft 438 kts
2026-04-25 01:52 35.68294 -79.19907 34923 ft 438 kts
2026-04-25 01:53 35.74211 -79.18128 34917 ft 439 kts 21°
2026-04-25 01:53 35.79465 -79.14305 34915 ft 441 kts 34°
2026-04-25 01:54 35.84469 -79.09939 34905 ft 441 kts 34°
2026-04-25 01:54 35.89457 -79.05604 34908 ft 441 kts 33°
2026-04-25 01:55 35.94470 -79.01241 34909 ft 441 kts 34°
2026-04-25 01:55 35.99477 -78.96863 34909 ft 441 kts 33°
2026-04-25 01:56 36.04485 -78.92471 34904 ft 441 kts 33°
2026-04-25 01:56 36.09490 -78.88077 34919 ft 441 kts 33°
2026-04-25 01:57 36.17002 -78.81483 34925 ft 441 kts 33°
2026-04-25 01:58 36.22008 -78.77079 34931 ft 441 kts 33°
2026-04-25 01:58 36.26983 -78.72696 34907 ft 441 kts 33°
2026-04-25 01:59 36.31982 -78.68282 34916 ft 441 kts 33°
2026-04-25 01:59 36.36978 -78.63864 34915 ft 441 kts 33°
2026-04-25 02:00 36.41973 -78.59437 34909 ft 441 kts 33°
2026-04-25 02:00 36.47004 -78.55079 34912 ft 440 kts 31°
2026-04-25 02:01 36.52180 -78.51027 34909 ft 439 kts 29°
2026-04-25 02:01 36.57400 -78.47062 34901 ft 439 kts 29°
2026-04-25 02:02 36.62586 -78.43048 34903 ft 439 kts 30°
2026-04-25 02:02 36.67753 -78.38984 34918 ft 439 kts 30°
2026-04-25 02:03 36.72874 -78.34934 34913 ft 438 kts 29°
2026-04-25 02:03 36.78023 -78.30858 34907 ft 438 kts 30°
2026-04-25 02:04 36.83169 -78.26787 34900 ft 438 kts 29°
2026-04-25 02:04 36.88320 -78.22720 34919 ft 438 kts 29°
2026-04-25 02:05 36.93463 -78.18653 34894 ft 438 kts 29°
2026-04-25 02:05 36.98606 -78.14563 34893 ft 438 kts 29°
2026-04-25 02:06 37.03708 -78.10506 34893 ft 437 kts 29°
2026-04-25 02:06 37.08845 -78.06414 34893 ft 437 kts 29°
2026-04-25 02:07 37.13979 -78.02320 34907 ft 437 kts 29°
2026-04-25 02:07 37.19112 -77.98229 34901 ft 437 kts 29°
2026-04-25 02:08 37.24243 -77.94124 34904 ft 437 kts 29°
2026-04-25 02:08 37.29369 -77.90008 34883 ft 438 kts 29°
2026-04-25 02:09 37.34501 -77.85893 34893 ft 438 kts 28°
2026-04-25 02:09 37.39633 -77.81767 34888 ft 438 kts 28°
2026-04-25 02:10 37.44764 -77.77624 34911 ft 438 kts 28°
2026-04-25 02:10 37.49864 -77.73505 34911 ft 438 kts 28°
2026-04-25 02:11 37.55001 -77.69356 34916 ft 438 kts 28°
2026-04-25 02:11 37.60135 -77.65225 34915 ft 437 kts 28°
2026-04-25 02:12 37.65262 -77.61082 34908 ft 437 kts 28°
2026-04-25 02:12 37.70381 -77.56925 34928 ft 437 kts 28°
2026-04-25 02:13 37.75494 -77.52768 34922 ft 437 kts 28°
2026-04-25 02:13 37.80574 -77.48653 34919 ft 436 kts 28°
2026-04-25 02:14 37.85682 -77.44512 34910 ft 436 kts 28°
2026-04-25 02:14 37.90774 -77.40354 34899 ft 436 kts 28°
2026-04-25 02:15 37.95867 -77.36193 34895 ft 435 kts 28°
2026-04-25 02:15 38.00963 -77.32030 34885 ft 436 kts 28°
2026-04-25 02:16 38.06063 -77.27860 34885 ft 436 kts 28°
2026-04-25 02:16 38.11135 -77.23711 34888 ft 436 kts 28°
2026-04-25 02:17 38.16231 -77.19520 34898 ft 436 kts 28°
2026-04-25 02:17 38.21324 -77.15321 34906 ft 436 kts 28°
2026-04-25 02:18 38.26419 -77.11125 34901 ft 436 kts 28°
2026-04-25 02:18 38.31480 -77.06842 34904 ft 438 kts 31°
2026-04-25 02:19 38.36354 -77.02165 34903 ft 439 kts 33°
2026-04-25 02:19 38.41164 -76.97360 34908 ft 439 kts 33°
2026-04-25 02:20 38.46008 -76.92602 34900 ft 439 kts 32°
2026-04-25 02:20 38.50879 -76.87917 34901 ft 438 kts 32°
2026-04-25 02:21 38.55756 -76.83238 34906 ft 438 kts 32°
2026-04-25 02:21 38.60625 -76.78528 34923 ft 438 kts 32°
2026-04-25 02:22 38.65478 -76.73803 34918 ft 438 kts 32°
2026-04-25 02:22 38.70294 -76.69103 34913 ft 438 kts 32°
2026-04-25 02:23 38.75146 -76.64376 34916 ft 438 kts 32°
2026-04-25 02:23 38.79997 -76.59647 34911 ft 438 kts 32°
2026-04-25 02:24 38.84844 -76.54912 34921 ft 438 kts 32°
2026-04-25 02:24 38.89684 -76.50164 34949 ft 438 kts 31°
2026-04-25 02:25 38.94532 -76.45419 34649 ft 438 kts 31°
2026-04-25 02:25 38.96952 -76.43044 34398 ft 438 kts 32°
2026-04-25 02:25 38.99381 -76.40657 34161 ft 440 kts 32°
2026-04-25 02:25 39.01816 -76.38258 33934 ft 441 kts 32°
2026-04-25 02:26 39.04226 -76.35799 33669 ft 444 kts 34°
2026-04-25 02:26 39.06544 -76.33233 33420 ft 447 kts 36°
2026-04-25 02:26 39.08875 -76.30495 33149 ft 449 kts 37°
2026-04-25 02:26 39.11119 -76.27779 32888 ft 450 kts 38°
2026-04-25 02:27 39.13402 -76.25008 32593 ft 450 kts 37°
2026-04-25 02:27 39.15701 -76.22242 31550 ft 456 kts 37°
2026-04-25 02:27 39.18047 -76.19461 30628 ft 459 kts 37°
2026-04-25 02:27 39.20427 -76.16673 29429 ft 465 kts 37°
2026-04-25 02:28 39.22838 -76.13869 28324 ft 467 kts 37°
2026-04-25 02:28 39.25254 -76.11061 27222 ft 468 kts 37°
2026-04-25 02:28 39.27644 -76.08269 26654 ft 458 kts 37°
2026-04-25 02:28 39.29984 -76.05518 26350 ft 453 kts 37°
2026-04-25 02:29 39.32273 -76.02818 25955 ft 450 kts 37°
2026-04-25 02:29 39.34605 -76.00063 25562 ft 447 kts 37°
2026-04-25 02:29 39.36864 -75.97401 25170 ft 444 kts 37°
2026-04-25 02:29 39.39136 -75.94724 24796 ft 441 kts 37°
2026-04-25 02:30 39.41396 -75.92057 24418 ft 438 kts 37°
2026-04-25 02:30 39.43644 -75.89403 24045 ft 435 kts 37°
2026-04-25 02:30 39.45868 -75.86773 23683 ft 432 kts 37°
2026-04-25 02:30 39.48082 -75.84151 23266 ft 430 kts 37°
2026-04-25 02:31 39.50279 -75.81545 22896 ft 428 kts 37°
2026-04-25 02:31 39.52469 -75.78948 22532 ft 426 kts 37°
2026-04-25 02:31 39.54653 -75.76358 22164 ft 424 kts 37°
2026-04-25 02:31 39.56826 -75.73785 21800 ft 422 kts 37°
2026-04-25 02:32 39.58989 -75.71222 21447 ft 421 kts 37°
2026-04-25 02:32 39.61144 -75.68666 21074 ft 419 kts 37°
2026-04-25 02:32 39.63284 -75.66123 20708 ft 417 kts 37°
2026-04-25 02:32 39.65418 -75.63580 20351 ft 415 kts 37°
2026-04-25 02:33 39.67544 -75.61040 19997 ft 414 kts 38°
2026-04-25 02:33 39.69659 -75.58506 19587 ft 413 kts 38°
2026-04-25 02:33 39.71763 -75.55977 19168 ft 411 kts 38°
2026-04-25 02:33 39.73857 -75.53454 18752 ft 409 kts 38°
2026-04-25 02:34 39.75914 -75.50970 18338 ft 408 kts 38°
2026-04-25 02:34 39.77986 -75.48462 17885 ft 406 kts 38°
2026-04-25 02:34 39.80049 -75.45967 17476 ft 404 kts 38°
2026-04-25 02:34 39.82103 -75.43482 17087 ft 402 kts 38°
2026-04-25 02:35 39.84144 -75.41014 16690 ft 400 kts 38°
2026-04-25 02:35 39.86178 -75.38554 16284 ft 398 kts 38°
2026-04-25 02:35 39.88200 -75.36108 15879 ft 395 kts 38°
2026-04-25 02:35 39.90207 -75.33679 15484 ft 393 kts 38°
2026-04-25 02:36 39.92203 -75.31261 15086 ft 391 kts 38°
2026-04-25 02:36 39.94171 -75.28865 14771 ft 381 kts 38°
2026-04-25 02:36 39.96065 -75.26551 14659 ft 365 kts 38°
2026-04-25 02:36 39.97880 -75.24331 14541 ft 351 kts 37°
2026-04-25 02:37 39.99626 -75.22201 14421 ft 337 kts 37°
2026-04-25 02:37 40.01311 -75.20149 14300 ft 326 kts 37°
2026-04-25 02:37 40.02946 -75.18161 14115 ft 317 kts 37°
2026-04-25 02:37 40.04552 -75.16213 13815 ft 314 kts 37°
2026-04-25 02:38 40.06129 -75.14300 13438 ft 312 kts 37°
2026-04-25 02:38 40.07714 -75.12371 13061 ft 311 kts 37°
2026-04-25 02:38 40.09291 -75.10443 12718 ft 309 kts 37°
2026-04-25 02:38 40.10855 -75.08527 12356 ft 308 kts 37°
2026-04-25 02:39 40.12412 -75.06620 12003 ft 306 kts 37°
2026-04-25 02:39 40.13967 -75.04721 11653 ft 304 kts 36°
2026-04-25 02:39 40.15506 -75.02837 11309 ft 303 kts 36°
2026-04-25 02:39 40.17038 -75.00956 10966 ft 301 kts 36°
2026-04-25 02:40 40.18562 -74.99085 10593 ft 299 kts 36°
2026-04-25 02:40 40.20076 -74.97228 10258 ft 298 kts 36°
2026-04-25 02:40 40.21075 -74.96001 10039 ft 297 kts 36°
2026-04-25 02:40 40.23060 -74.93559 9567 ft 295 kts 36°
2026-04-25 02:41 40.24554 -74.91724 9218 ft 294 kts 36°
2026-04-25 02:41 40.26028 -74.89874 8853 ft 294 kts 39°
2026-04-25 02:41 40.27428 -74.87979 8514 ft 293 kts 40°
2026-04-25 02:41 40.28829 -74.86006 8171 ft 292 kts 41°
2026-04-25 02:42 40.30155 -74.84002 7864 ft 293 kts 51°
2026-04-25 02:42 40.30827 -74.82477 7774 ft 291 kts 56°
2026-04-25 02:42 40.31801 -74.80158 7649 ft 291 kts 56°
2026-04-25 02:42 40.32796 -74.77816 7524 ft 290 kts 56°
2026-04-25 02:43 40.33764 -74.75540 7414 ft 290 kts 56°
2026-04-25 02:43 40.34741 -74.73237 7291 ft 289 kts 56°
2026-04-25 02:43 40.35715 -74.70937 7165 ft 288 kts 56°
2026-04-25 02:43 40.36685 -74.68642 7040 ft 287 kts 56°
2026-04-25 02:44 40.37651 -74.66350 6916 ft 287 kts 57°
2026-04-25 02:44 40.38616 -74.64060 6792 ft 287 kts 57°
2026-04-25 02:44 40.39579 -74.61773 6675 ft 286 kts 57°
2026-04-25 02:44 40.40541 -74.59495 6552 ft 286 kts 57°
2026-04-25 02:45 40.41501 -74.57218 6432 ft 285 kts 57°
2026-04-25 02:45 40.42459 -74.54940 6174 ft 284 kts 57°
2026-04-25 02:45 40.43407 -74.52676 5786 ft 284 kts 58°
2026-04-25 02:45 40.44372 -74.50382 5281 ft 289 kts 59°
2026-04-25 02:46 40.45351 -74.48054 4786 ft 293 kts 59°
2026-04-25 02:46 40.46329 -74.45717 4528 ft 287 kts 59°
2026-04-25 02:46 40.47271 -74.43457 4396 ft 277 kts 60°
2026-04-25 02:46 40.48181 -74.41274 4260 ft 268 kts 60°
2026-04-25 02:47 40.48895 -74.39049 4155 ft 260 kts 72°
2026-04-25 02:47 40.49411 -74.36815 4052 ft 251 kts 72°
2026-04-25 02:47 40.49914 -74.34668 3944 ft 240 kts 72°
2026-04-25 02:47 40.50398 -74.32615 3839 ft 230 kts 72°
2026-04-25 02:48 40.50863 -74.30652 3738 ft 220 kts 72°
2026-04-25 02:48 40.51385 -74.28826 3647 ft 207 kts 60°
2026-04-25 02:48 40.52265 -74.27415 3446 ft 199 kts 40°
2026-04-25 02:48 40.53439 -74.26499 3203 ft 194 kts 27°
2026-04-25 02:49 40.54645 -74.25738 2955 ft 190 kts 27°
2026-04-25 02:49 40.55815 -74.24999 2705 ft 181 kts 28°
2026-04-25 02:49 40.56916 -74.24303 2466 ft 169 kts 28°
2026-04-25 02:49 40.57910 -74.23675 2270 ft 150 kts 28°
2026-04-25 02:50 40.58832 -74.23090 2069 ft 146 kts 29°
2026-04-25 02:50 40.59750 -74.22507 1871 ft 147 kts 29°
2026-04-25 02:50 40.60678 -74.21918 1675 ft 148 kts 30°
2026-04-25 02:50 40.61611 -74.21327 1472 ft 150 kts 29°
2026-04-25 02:51 40.62561 -74.20723 1271 ft 153 kts 29°
2026-04-25 02:51 40.63523 -74.20113 1059 ft 154 kts 29°
2026-04-25 02:51 40.64483 -74.19505 839 ft 150 kts 29°
2026-04-25 02:51 40.65402 -74.18922 634 ft 144 kts 29°
2026-04-25 02:52 40.66294 -74.18356 440 ft 141 kts 27°
2026-04-25 02:52 40.67157 -74.17808 259 ft 139 kts 28°
2026-04-25 02:52 40.68019 -74.17260 69 ft 136 kts 27°
2026-04-25 02:52 40.68801 -74.16761 19 ft 105 kts 25°
2026-04-25 02:53 40.69320 -74.16429 25 ft 42 kts 26°
2026-04-25 02:53 40.69508 -74.16316 22 ft 30 kts 18°
2026-04-25 02:53 40.69678 -74.16295 19 ft 26 kts
2026-04-25 02:53 40.69745 -74.16352 18 ft 7 kts 233°
2026-04-25 02:54 40.69724 -74.16417 19 ft 9 kts 281°
2026-04-25 02:54 40.69758 -74.16502 18 ft 12 kts 295°
2026-04-25 02:54 40.69800 -74.16623 16 ft 17 kts 296°
2026-04-25 02:54 40.69778 -74.16769 17 ft 17 kts 243°
2026-04-25 02:55 40.69682 -74.16859 19 ft 18 kts 205°
2026-04-25 02:55 40.69596 -74.16916 19 ft 13 kts 206°
2026-04-25 02:55 40.69529 -74.16998 19 ft 15 kts 257°
2026-04-25 02:55 40.69524 -74.17035 19 ft 2 kts 261°
2026-04-25 02:56 40.69522 -74.17061 19 ft 4 kts 267°
2026-04-25 02:56 40.69538 -74.17085 21 ft 4 kts 353°
2026-04-25 02:56 40.69570 -74.17090 20 ft 5 kts 350°
2026-04-25 02:56 40.69606 -74.17108 21 ft 6 kts 324°
2026-04-25 02:57 40.69623 -74.17162 21 ft 8 kts 269°
2026-04-25 02:57 40.69616 -74.17182 21 ft 3 kts 253°
2026-04-25 02:57 40.69621 -74.17205 21 ft 3 kts 297°
2026-04-25 02:57 40.69619 -74.17234 21 ft 0 kts 251°